Location: Baumgartsau
(48.4586°N, 14.0864°E)
Time: 11:03:46
(UTC+00:00)

ATLAS 5 CENTAUR R/B - Pass Details

Date: 09 April 2020
Orbit: 543 x 1116 km, 63.4° (Epoch: 01 May)

Event Time Altitude Azimuth Distance (km) Brightness Sun altitude
Rises 18:15:39 0° 196° (SSW) 2,714 4.8 -5.5°
Reaches altitude 10° 18:17:52 10° 188° (S) 1,854 3.9 -5.8°
Maximum altitude 18:21:42 38° 120° (ESE) 928 2.0 -6.4°
Drops below altitude 10° 18:25:57 10° 53° (NE) 2,069 3.9 -7.1°
Sets 18:28:32 0° 46° (NE) 3,076 4.9 -7.5°
